Location: Unspecified
(0.0000°N, 0.0000°E)
Time: 18:04:23
(UTC+00:00)

Hubble Space Telescope - Pass Details

Date: 13 January 2026
Orbit: 479 x 481 km, 28.5° (Epoch: 19 January)

Event Time Altitude Azimuth Distance (km) Brightness Sun altitude
Rises 18:47:42 0° 219° (SW) 2,523 5.4 -9.0°
Reaches altitude 10° 18:50:14 10° 204° (SSW) 1,644 4.0 -9.6°
Maximum altitude 18:53:15 22° 151° (SSE) 1,074 2.2 -10.3°
Enters shadow 18:55:56 12° 101° (E) 1,545 2.6 -11.0°
